Weather in Gornostayivka

Ukraine / Kherson District     46°31′04″N   34°17′22″E
temp.,
°C
wind,
m/s
gust,
m/s
humid.,
%
clouds,
%
prec.,
mm/h
press.,
hPa
HPBL,
m
17 april, sat
sat1700:00+5wsw37892 0.0 1019151
03:00+4sw36935 0.0 1020123
06:00+4sw35955 0.0 102191
09:00+10sw46662 0.0 1021638
12:00+13sw554824 0.0 10211608
15:00+15sw553964 0.0 10211896
18:00+13ssw44465 0.0 1020994
21:00+8s36655 0.0 1021106
18 april, sun
sun1800:00+6se227469 0.0 102017
03:00+6ene3374100 0.0 102053
06:00+6ene237585 0.0 101943
09:00+10ese465292 0.0 1019550
12:00+14ese555220 0.0 10181299
15:00+14se555986 0.0 10171214
18:00+13ese556562 0.0 1016780
21:00+10ese4781100 0.0 1017325
19 april, mon
mon1900:00+8ese3592100 0.0 1016146
03:00+9ne2390100 0.1 1015137
06:00+8ene2395100 0.0 101549
09:00+11ene348281 0.0 1014421
12:00+14ene446680 0.0 1013992
15:00+15ese3467100 0.1 1012859
18:00+13ese5576100 0.0 1011545
21:00+10e51091100 0.1 1009352
20 april, tue
tue2000:00+10e4995100 1.8 1006392
03:00+10e61097100 6.5 1002350
06:00+11sse61298100 3.1 999607
09:00+12ssw8128785 3.8 998847
12:00+12ssw9137772 0.3 9981199
15:00+11ssw12178499 0.4 9951114
18:00+10w121685100 0.1 997903
21:00+10w111679100 0.6 10061285
21 april, wed
wed2100:00+9wsw81575100 0.0 1010636
03:00+8wsw51379100 0.0 1012376
06:00+7sw410915 0.0 1014212
09:00+12sw68689 0.0 1015700
12:00+16sw575096 0.1 10161771
15:00+15sw675328 0.2 10161480
18:00+14sw68595 0.3 10171041
21:00+9sw36795 0.4 1019119